SVA627 OERK-OEGS

Flight info

Callsign SVA627
Flight time 0h 35m
Altitude 28000
Route IVONU2D/33R IVONU Z710 GAS
Aircraft B77W/H-SDE1E2E3FGHIJ2J3J4J5M1RWXY/LB1D1

Departure

Time 2026-04-22 20:50
Airport King Khalid International Airport (OERK)

Arrival

Time 2026-04-22 21:25
Airport Prince Naif bin Abdulaziz International Airport (OEGS)
Time Latitude Longitude Altitude Speed Heading
2026-04-22 20:19 24.95631 46.70742 2035 ft 0 kts 263°
2026-04-22 20:43 24.95634 46.70764 2038 ft 9 kts 240°
2026-04-22 20:43 24.95722 46.70773 2045 ft 7 kts 146°
2026-04-22 20:43 24.95726 46.70770 2045 ft 0 kts 141°
2026-04-22 20:44 24.95725 46.70771 2045 ft 1 kts 141°
2026-04-22 20:44 24.95673 46.70813 2045 ft 15 kts 148°
2026-04-22 20:45 24.95580 46.70873 2045 ft 15 kts 152°
2026-04-22 20:45 24.95487 46.70931 2043 ft 15 kts 150°
2026-04-22 20:45 24.95396 46.70989 2045 ft 15 kts 150°
2026-04-22 20:45 24.95342 46.71077 2041 ft 15 kts 83°
2026-04-22 20:46 24.95403 46.71286 2043 ft 15 kts 118°
2026-04-22 20:46 24.95321 46.71355 2044 ft 15 kts 148°
2026-04-22 20:46 24.95230 46.71412 2044 ft 15 kts 150°
2026-04-22 20:47 24.95139 46.71468 2044 ft 15 kts 150°
2026-04-22 20:47 24.95049 46.71526 2042 ft 15 kts 149°
2026-04-22 20:47 24.94959 46.71583 2045 ft 15 kts 156°
2026-04-22 20:47 24.94860 46.71646 2044 ft 19 kts 149°
2026-04-22 20:48 24.94745 46.71720 2055 ft 19 kts 150°
2026-04-22 20:48 24.94630 46.71793 2046 ft 19 kts 150°
2026-04-22 20:48 24.94514 46.71865 2045 ft 19 kts 150°
2026-04-22 20:48 24.94398 46.71938 2045 ft 19 kts 151°
2026-04-22 20:49 24.94308 46.72037 2045 ft 19 kts 98°
2026-04-22 20:49 24.94361 46.72170 2042 ft 19 kts 58°
2026-04-22 20:49 24.94464 46.72233 2042 ft 21 kts 338°
2026-04-22 20:49 24.94681 46.72098 2046 ft 51 kts 328°
2026-04-22 20:50 24.95259 46.71734 2041 ft 151 kts 330°
2026-04-22 20:50 24.96433 46.70964 2592 ft 214 kts 330°
2026-04-22 20:50 24.97706 46.70186 4361 ft 211 kts 336°
2026-04-22 20:50 24.99140 46.69522 5094 ft 237 kts 342°
2026-04-22 20:51 25.00819 46.68882 5955 ft 270 kts 341°
2026-04-22 20:51 25.02625 46.68191 7595 ft 282 kts 339°
2026-04-22 20:51 25.04516 46.67455 8448 ft 289 kts 338°
2026-04-22 20:51 25.06376 46.66606 9276 ft 292 kts 323°
2026-04-22 20:52 25.07817 46.65050 10158 ft 290 kts 298°
2026-04-22 20:52 25.08600 46.62998 10899 ft 299 kts 281°
2026-04-22 20:52 25.08724 46.60631 11346 ft 326 kts 260°
2026-04-22 20:52 25.08256 46.58033 11864 ft 361 kts 256°
2026-04-22 20:53 25.07725 46.55283 13018 ft 371 kts 258°
2026-04-22 20:53 25.07428 46.52446 14362 ft 375 kts 266°
2026-04-22 20:53 25.07386 46.49559 15761 ft 377 kts 268°
2026-04-22 20:53 25.07402 46.46653 17151 ft 380 kts 268°
2026-04-22 20:54 25.07402 46.43719 18416 ft 386 kts 268°
2026-04-22 20:54 25.07371 46.40735 19446 ft 391 kts 267°
2026-04-22 20:54 25.07315 46.37714 20480 ft 396 kts 267°
2026-04-22 20:54 25.07249 46.34657 21481 ft 401 kts 267°
2026-04-22 20:55 25.07179 46.31565 22434 ft 406 kts 267°
2026-04-22 20:55 25.07107 46.28432 23340 ft 411 kts 267°
2026-04-22 20:55 25.07033 46.25257 24089 ft 416 kts 267°
2026-04-22 20:55 25.06959 46.22058 24847 ft 418 kts 267°
2026-04-22 20:56 25.06884 46.18844 25588 ft 420 kts 267°
2026-04-22 20:56 25.06809 46.15619 26296 ft 422 kts 268°
2026-04-22 20:56 25.06734 46.12421 27068 ft 422 kts 268°
2026-04-22 20:56 25.06656 46.09190 27827 ft 420 kts 268°
2026-04-22 20:57 25.06580 46.05990 27979 ft 417 kts 268°
2026-04-22 20:57 25.06503 46.02806 27982 ft 417 kts 268°
2026-04-22 20:57 25.06424 45.99614 27984 ft 417 kts 268°
2026-04-22 20:57 25.06345 45.96413 27982 ft 417 kts 268°
2026-04-22 20:58 25.06266 45.93220 27983 ft 417 kts 268°
2026-04-22 20:58 25.06185 45.90025 27984 ft 417 kts 268°
2026-04-22 20:58 25.06104 45.86830 27979 ft 417 kts 268°
2026-04-22 20:58 25.06022 45.83627 27971 ft 417 kts 268°
2026-04-22 20:59 25.05940 45.80430 27970 ft 417 kts 268°
2026-04-22 20:59 25.05859 45.77278 27971 ft 417 kts 268°
2026-04-22 20:59 25.05775 45.74089 27966 ft 416 kts 268°
2026-04-22 20:59 25.05691 45.70899 27965 ft 416 kts 268°
2026-04-22 21:00 25.05867 45.67732 27968 ft 416 kts 278°
2026-04-22 21:00 25.06707 45.64625 27962 ft 430 kts 291°
2026-04-22 21:00 25.08035 45.61626 27978 ft 441 kts 293°
2026-04-22 21:00 25.09421 45.58560 27978 ft 451 kts 293°
2026-04-22 21:01 25.10825 45.55436 27977 ft 458 kts 293°
2026-04-22 21:01 25.12241 45.52259 27971 ft 465 kts 292°
2026-04-22 21:01 25.13663 45.49039 27969 ft 467 kts 292°
2026-04-22 21:01 25.15077 45.45821 27956 ft 465 kts 292°
2026-04-22 21:02 25.16479 45.42614 27954 ft 464 kts 292°
2026-04-22 21:02 25.17876 45.39410 27958 ft 463 kts 292°
2026-04-22 21:02 25.19268 45.36211 27961 ft 462 kts 292°
2026-04-22 21:02 25.20659 45.33009 27960 ft 462 kts 292°
2026-04-22 21:03 25.22048 45.29809 27951 ft 462 kts 292°
2026-04-22 21:03 25.22967 45.27691 27954 ft 463 kts 292°
2026-04-22 21:03 25.24350 45.24507 27948 ft 452 kts 292°
2026-04-22 21:03 25.25681 45.21450 27940 ft 433 kts 292°
2026-04-22 21:04 25.27377 45.17547 27947 ft 420 kts 291°
2026-04-22 21:04 25.28228 45.15582 27953 ft 419 kts 291°
2026-04-22 21:04 25.29481 45.12679 27967 ft 420 kts 291°
2026-04-22 21:04 25.30740 45.09761 27976 ft 421 kts 291°
2026-04-22 21:05 25.32003 45.06834 27970 ft 422 kts 291°
2026-04-22 21:05 25.33271 45.03896 27967 ft 423 kts 291°
2026-04-22 21:05 25.34541 45.00951 27959 ft 424 kts 291°
2026-04-22 21:05 25.35810 44.98011 27963 ft 424 kts 291°
2026-04-22 21:06 25.37079 44.95070 27961 ft 424 kts 291°
2026-04-22 21:06 25.38346 44.92128 27964 ft 423 kts 291°
2026-04-22 21:06 25.39596 44.89226 27959 ft 423 kts 291°
2026-04-22 21:06 25.40856 44.86298 27956 ft 422 kts 291°
2026-04-22 21:07 25.42118 44.83364 27958 ft 422 kts 291°
2026-04-22 21:07 25.43374 44.80440 27958 ft 421 kts 291°
2026-04-22 21:07 25.44631 44.77514 27958 ft 420 kts 291°
2026-04-22 21:07 25.45875 44.74615 27951 ft 413 kts 291°
2026-04-22 21:08 25.47101 44.71759 27577 ft 409 kts 291°
2026-04-22 21:08 25.48313 44.68930 27069 ft 405 kts 291°
2026-04-22 21:08 25.49514 44.66127 26470 ft 402 kts 291°
2026-04-22 21:08 25.50709 44.63334 25869 ft 399 kts 291°
2026-04-22 21:09 25.51968 44.60599 25248 ft 401 kts 296°
2026-04-22 21:09 25.53563 44.58047 24657 ft 405 kts 302°
2026-04-22 21:09 25.55380 44.55648 24050 ft 408 kts 307°
2026-04-22 21:09 25.57438 44.53464 23445 ft 413 kts 313°
2026-04-22 21:10 25.59641 44.51420 22768 ft 413 kts 314°
2026-04-22 21:10 25.61823 44.49424 22148 ft 411 kts 314°
2026-04-22 21:10 25.64056 44.47386 21538 ft 409 kts 314°
2026-04-22 21:10 25.66212 44.45411 20985 ft 407 kts 314°
2026-04-22 21:11 25.68410 44.43388 20377 ft 405 kts 314°
2026-04-22 21:11 25.70569 44.41391 19786 ft 403 kts 314°
2026-04-22 21:11 25.72685 44.39430 19231 ft 401 kts 314°
2026-04-22 21:11 25.74821 44.37444 18650 ft 400 kts 314°
2026-04-22 21:12 25.76954 44.35457 18051 ft 400 kts 313°
2026-04-22 21:12 25.79079 44.33477 17409 ft 398 kts 313°
2026-04-22 21:12 25.81194 44.31508 16826 ft 395 kts 313°
2026-04-22 21:12 25.83295 44.29551 16254 ft 392 kts 313°
2026-04-22 21:13 25.85380 44.27608 15704 ft 389 kts 313°
2026-04-22 21:13 25.87444 44.25684 15163 ft 386 kts 313°
2026-04-22 21:13 25.89492 44.23772 14622 ft 384 kts 313°
2026-04-22 21:13 25.91533 44.21868 14096 ft 381 kts 313°
2026-04-22 21:14 25.93555 44.19978 13560 ft 378 kts 313°
2026-04-22 21:14 25.95541 44.18120 12976 ft 376 kts 314°
2026-04-22 21:14 25.97538 44.16252 12433 ft 373 kts 314°
2026-04-22 21:14 25.99518 44.14399 11903 ft 371 kts 314°
2026-04-22 21:15 26.01489 44.12554 11373 ft 368 kts 315°
2026-04-22 21:15 26.03446 44.10722 10947 ft 364 kts 315°
2026-04-22 21:15 26.05291 44.09004 10765 ft 329 kts 315°
2026-04-22 21:15 26.06967 44.07449 10618 ft 299 kts 316°
2026-04-22 21:16 26.07304 44.07160 10578 ft 294 kts 319°
2026-04-22 21:16 26.08995 44.06042 10451 ft 272 kts 327°
2026-04-22 21:16 26.10625 44.05151 10383 ft 265 kts 328°
2026-04-22 21:16 26.12343 44.04225 10320 ft 282 kts 328°
2026-04-22 21:17 26.14132 44.03252 10202 ft 287 kts 328°
2026-04-22 21:17 26.15915 44.02279 10073 ft 283 kts 329°
2026-04-22 21:17 26.17666 44.01323 9821 ft 280 kts 329°
2026-04-22 21:17 26.19410 44.00362 9487 ft 279 kts 329°
2026-04-22 21:18 26.21148 43.99392 9171 ft 278 kts 329°
2026-04-22 21:18 26.22866 43.98418 8861 ft 277 kts 329°
2026-04-22 21:18 26.24572 43.97432 8550 ft 276 kts 329°
2026-04-22 21:18 26.26263 43.96433 8257 ft 275 kts 329°
2026-04-22 21:19 26.27955 43.95414 7960 ft 278 kts 329°
2026-04-22 21:19 26.29656 43.94368 7669 ft 281 kts 329°
2026-04-22 21:19 26.31367 43.93296 7357 ft 283 kts 329°
2026-04-22 21:19 26.33074 43.92205 7094 ft 283 kts 329°
2026-04-22 21:20 26.34761 43.91104 6833 ft 284 kts 329°
2026-04-22 21:20 26.36436 43.89990 6471 ft 276 kts 329°
2026-04-22 21:20 26.38072 43.88871 5735 ft 276 kts 329°
2026-04-22 21:20 26.39726 43.87701 4953 ft 279 kts 329°
2026-04-22 21:21 26.41349 43.86510 4316 ft 278 kts 329°
2026-04-22 21:21 26.42924 43.85316 4091 ft 275 kts 323°
2026-04-22 21:21 26.44085 43.83594 3889 ft 284 kts 288°
2026-04-22 21:21 26.44198 43.81452 3828 ft 276 kts 252°
2026-04-22 21:22 26.43279 43.79662 3829 ft 263 kts 224°
2026-04-22 21:22 26.42144 43.78036 3830 ft 271 kts 233°
2026-04-22 21:22 26.41155 43.76289 3810 ft 256 kts 236°
2026-04-22 21:22 26.40263 43.74695 3781 ft 227 kts 225°
2026-04-22 21:23 26.39067 43.73756 3810 ft 200 kts 188°
2026-04-22 21:23 26.37726 43.73614 3872 ft 189 kts 172°
2026-04-22 21:23 26.36479 43.73868 3531 ft 180 kts 152°
2026-04-22 21:23 26.35389 43.74464 3118 ft 166 kts 146°
2026-04-22 21:24 26.34390 43.75098 2792 ft 160 kts 149°
2026-04-22 21:24 26.33435 43.75627 2498 ft 150 kts 150°
2026-04-22 21:24 26.32483 43.76147 2376 ft 152 kts 148°
2026-04-22 21:24 26.31596 43.76668 2201 ft 141 kts 150°
2026-04-22 21:25 26.30792 43.77127 2138 ft 113 kts 153°
2026-04-22 21:25 26.30340 43.77382 2138 ft 62 kts 153°
2026-04-22 21:25 26.29979 43.77589 2136 ft 54 kts 153°
2026-04-22 21:25 26.29725 43.77711 2140 ft 34 kts 167°
2026-04-22 21:26 26.29515 43.77724 2143 ft 15 kts 182°
2026-04-22 21:26 26.29435 43.77672 2141 ft 15 kts 267°
2026-04-22 21:26 26.29513 43.77598 2140 ft 16 kts 332°
2026-04-22 21:26 26.29611 43.77542 2141 ft 16 kts 334°
2026-04-22 21:27 26.29708 43.77488 2141 ft 16 kts 333°
2026-04-22 21:27 26.29806 43.77433 2139 ft 16 kts 333°
2026-04-22 21:27 26.29940 43.77355 2139 ft 32 kts 332°
2026-04-22 21:27 26.30171 43.77226 2139 ft 37 kts 334°
2026-04-22 21:28 26.30394 43.77099 2141 ft 28 kts 330°
2026-04-22 21:28 26.30415 43.77085 2141 ft 5 kts 332°
2026-04-22 21:28 26.30446 43.77068 2141 ft 5 kts 333°
2026-04-22 21:28 26.30504 43.77035 2143 ft 4 kts 332°
2026-04-22 21:29 26.30505 43.77004 2143 ft 5 kts 240°
2026-04-22 21:29 26.30488 43.76968 2143 ft 6 kts 243°
2026-04-22 21:29 26.30487 43.76965 2143 ft 0 kts 243°